sat.trackr.live / text

‹ back to catalog

STARLINK-30564

NORAD 58043 · 2023-156R

PAYLOAD ACTIVE UNKNOWN

§ Identity

Operator
Country
US
Launch date
2023-10-09
Launch site
AFWTR
Launch vehicle
Mass (kg)
RCS (m²)

Purposes: comms

External: N2YO · Heavens-Above · Gunter

§ Orbital elements

Epoch: 2026-05-25T02:51:32.171040Z

Period
94.11 min
Inclination
53.1564°
Eccentricity
0.0001147
Mean motion
15.30188123 rev/d
Perigee alt
474.5 km
Apogee alt
476.0 km
Semi-major
6,853.4 km
B*
1.1771e-3
RAAN
83.4780°
Arg perigee
109.8291°
Mean anomaly
250.2833°
Rev number
14,801

§ Raw data

STARLINK-305641 58043U 23156R   26145.11912235  .00034652  00000+0  11771-2 0  99972 58043  53.1564  83.4780 0001147 109.8291 250.2833 15.30188123148018

JSON: /api/v1/satellites/58043 · /tle

For live sub-satellite position, see the globe view (requires WebGL).

§ Visibility from observer

Set your observer location to see the next 7 days of passes ≥ 10°. The values pass through the URL so the page stays shareable.

No JS? Fill the form by hand. The geolocation button needs JavaScript.